Stanley, ND

8:54 PM CDT on May 27, 2017 (GMT -0500)
Stanley

Weather History for K08D - December, 2011

Change the Weather History Date:

Tuesday, December 27, 2011

  Actual Average (KMIB) Record (KMIB)
Temperature  
Mean Temperature 26 °F -  
Max Temperature 32 °F 18 °F 48 °F (1999)
Min Temperature 19 °F 2 °F -15 °F (2015)
Degree Days  
Heating Degree Days 40    
Moisture  
Dew Point 22 °F    
Average Humidity 90    
Maximum Humidity 100    
Minimum Humidity 80    
Precipitation  
Precipitation 0.05 in - - ()
Sea Level Pressure  
Sea Level Pressure 29.90 in    
Wind  
Wind Speed 10 mph (SSE)    
Max Wind Speed 17 mph    
Max Gust Speed 21 mph    
Visibility 9 miles    
Events Snow    
Averages and records for this station are not official NWS values.
T = Trace of Precipitation, MM = Missing Value Source: NWS Daily Summary

Daily Weather History Graph

Daily Weather History Graph

Search for Another Location

Airport or City:

Trip Planner

Search our weather history database for the weather conditions in past years. The results will help you decide how hot, cold, wet, or windy it might be!

Date:

Astronomy

Dec. 27, 2011 Rise Set
Actual Time 8:40 AM CST 5:01 PM CST
Civil Twilight 8:03 AM CST 5:37 PM CST
Nautical Twilight 7:23 AM CST 6:17 PM CST
Astronomical Twilight 6:45 AM CST 6:55 PM CST
Moon 10:22 AM CST (12/27) 8:53 PM CST (12/27)
Length of Visible Light 9h 34m
Length of Day
8h 21m
Waxing Crescent, 11% of the Moon is Illuminated
Dec 27
Waxing Crescent
Jan 1
First Quarter
Jan 9
Full
Jan 16
Last Quarter
Jan 23
New

Hourly Weather History & Observations

Time (CST) Temp. Windchill Dew Point Humidity Pressure Visibility Wind Dir Wind Speed Gust Speed Precip Events Conditions
12:15 AM 32.0 °F 22.5 °F 28.4 °F 87% 30.00 in 10.0 mi NNE 12.7 mph - N/A   Overcast
12:35 AM 30.2 °F 20.8 °F 28.4 °F 93% 30.01 in 10.0 mi NNE 11.5 mph 17.3 mph N/A   Overcast
12:55 AM 28.4 °F 18.5 °F 26.6 °F 93% 30.02 in 10.0 mi NNE 11.5 mph 17.3 mph N/A   Overcast
1:15 AM 28.4 °F 20.4 °F 24.8 °F 86% 30.02 in 10.0 mi NNE 8.1 mph 19.6 mph N/A   Overcast
1:35 AM 26.6 °F 16.2 °F 21.2 °F 80% 30.03 in 10.0 mi NNE 11.5 mph 16.1 mph N/A   Overcast
1:55 AM 26.6 °F 16.2 °F 21.2 °F 80% 30.03 in 10.0 mi NNE 11.5 mph 17.3 mph N/A   Overcast
2:15 AM 26.6 °F 20.0 °F 21.2 °F 80% 30.04 in 10.0 mi NNE 5.8 mph - N/A   Overcast
2:35 AM 26.6 °F 19.1 °F 23.0 °F 86% 30.05 in 10.0 mi NE 6.9 mph - N/A   Overcast
2:55 AM 26.6 °F 19.1 °F 21.2 °F 80% 30.05 in 10.0 mi NNE 6.9 mph - N/A   Overcast
3:15 AM 26.6 °F 21.2 °F 23.0 °F 86% 30.05 in 10.0 mi NE 4.6 mph - N/A   Overcast
3:35 AM 24.8 °F 20.5 °F 23.0 °F 93% 30.06 in 10.0 mi NE 3.5 mph - N/A   Overcast
3:55 AM 24.8 °F 19.1 °F 23.0 °F 93% 30.06 in 10.0 mi ENE 4.6 mph - N/A   Overcast
4:15 AM 24.8 °F 20.5 °F 21.2 °F 86% 30.06 in 10.0 mi ENE 3.5 mph - N/A   Overcast
4:55 AM 23.0 °F 11.7 °F 19.4 °F 86% 30.05 in 10.0 mi East 11.5 mph - N/A   Overcast
5:35 AM 23.0 °F 14.7 °F 19.4 °F 86% 30.04 in 10.0 mi ESE 6.9 mph - N/A   Overcast
5:55 AM 21.2 °F 11.7 °F 17.6 °F 86% 30.03 in 10.0 mi ESE 8.1 mph - N/A   Overcast
6:15 AM 21.2 °F 13.6 °F 17.6 °F 86% 30.02 in 10.0 mi ESE 5.8 mph - N/A   Overcast
6:35 AM 21.2 °F 11.7 °F 17.6 °F 86% 30.02 in 10.0 mi ENE 8.1 mph - N/A   Overcast
6:55 AM 21.2 °F 10.1 °F 17.6 °F 86% 30.00 in 10.0 mi East 10.4 mph - N/A   Overcast
7:15 AM 21.2 °F 12.6 °F 17.6 °F 86% 30.01 in 10.0 mi SE 6.9 mph - N/A   Overcast
7:35 AM 19.4 °F 9.5 °F 17.6 °F 93% 30.01 in 10.0 mi SE 8.1 mph - N/A   Overcast
7:55 AM 19.4 °F 10.4 °F 17.6 °F 93% 30.01 in 10.0 mi SSE 6.9 mph - N/A   Overcast
8:15 AM 19.4 °F 9.5 °F 17.6 °F 93% 30.00 in 10.0 mi SSE 8.1 mph - N/A   Overcast
8:35 AM 19.4 °F 9.5 °F 17.6 °F 93% 29.99 in 10.0 mi SE 8.1 mph - N/A   Overcast
8:55 AM 21.2 °F 11.7 °F 17.6 °F 86% 29.99 in 10.0 mi SE 8.1 mph - N/A   Overcast
9:35 AM 19.4 °F 9.5 °F 17.6 °F 93% 29.98 in 10.0 mi SSE 8.1 mph - N/A   Overcast
9:55 AM 19.4 °F 6.6 °F 17.6 °F 93% 29.98 in 10.0 mi SSE 12.7 mph - N/A   Overcast
10:15 AM 19.4 °F 7.2 °F 17.6 °F 93% 29.98 in 10.0 mi South 11.5 mph - N/A   Overcast
10:35 AM 19.4 °F 7.9 °F 17.6 °F 93% 29.99 in 10.0 mi South 10.4 mph - N/A   Overcast
10:55 AM 21.2 °F 8.9 °F 17.6 °F 86% 29.98 in 10.0 mi South 12.7 mph - N/A   Overcast
11:15 AM 21.2 °F 8.3 °F 17.6 °F 86% 29.97 in 10.0 mi South 13.8 mph 17.3 mph N/A   Overcast
11:55 AM 23.0 °F 11.1 °F 19.4 °F 86% 29.93 in 8.0 mi South 12.7 mph - N/A Snow Light Snow
12:15 PM 23.0 °F 11.7 °F 19.4 °F 86% 29.91 in 0.8 mi SSE 11.5 mph - N/A Snow Light Snow
12:35 PM 23.0 °F 12.4 °F 21.2 °F 93% 29.89 in 0.8 mi SSE 10.4 mph - 0.02 in Snow Light Snow
12:55 PM 23.0 °F 12.4 °F 21.2 °F 93% 29.88 in 1.0 mi South 10.4 mph 16.1 mph 0.03 in Snow Light Snow
1:15 PM 23.0 °F 12.4 °F 23.0 °F 100% 29.86 in 0.8 mi South 10.4 mph - 0.01 in Snow Light Snow
1:35 PM 24.8 °F 14.6 °F 23.0 °F 93% 29.84 in 2.0 mi SSE 10.4 mph - 0.01 in Snow Light Snow
1:55 PM 24.8 °F 12.9 °F 23.0 °F 93% 29.82 in 8.0 mi South 13.8 mph - 0.02 in   Clear
2:15 PM 26.6 °F 14.3 °F 24.8 °F 93% 29.80 in 10.0 mi South 16.1 mph - N/A   Scattered Clouds
2:35 PM 26.6 °F 14.3 °F 24.8 °F 93% 29.79 in 10.0 mi South 16.1 mph 20.7 mph N/A   Overcast
2:55 PM 26.6 °F 13.8 °F 24.8 °F 93% 29.78 in 10.0 mi South 17.3 mph - N/A   Overcast
3:15 PM 26.6 °F 14.7 °F 26.6 °F 100% 29.78 in 10.0 mi South 15.0 mph - N/A   Overcast
3:35 PM 28.4 °F 18.0 °F 26.6 °F 93% 29.77 in 10.0 mi South 12.7 mph 18.4 mph N/A   Overcast
4:15 PM 28.4 °F 19.1 °F 28.4 °F 100% 29.76 in 10.0 mi South 10.4 mph 18.4 mph N/A   Overcast
4:35 PM 28.4 °F 18.5 °F 26.6 °F 93% 29.76 in 10.0 mi South 11.5 mph 16.1 mph N/A   Overcast
4:55 PM 28.4 °F 19.7 °F 26.6 °F 93% 29.75 in 10.0 mi South 9.2 mph - N/A   Overcast
5:15 PM 28.4 °F 18.5 °F 26.6 °F 93% 29.75 in 10.0 mi SSW 11.5 mph - N/A   Overcast
5:35 PM 26.6 °F 15.2 °F 26.6 °F 100% 29.74 in 10.0 mi SSW 13.8 mph - N/A   Overcast
5:55 PM 26.6 °F 15.2 °F 26.6 °F 100% 29.73 in 10.0 mi SSW 13.8 mph - N/A   Overcast
6:15 PM 26.6 °F 15.2 °F 24.8 °F 93% 29.72 in 10.0 mi SSW 13.8 mph - N/A   Overcast
6:35 PM 26.6 °F 16.2 °F 24.8 °F 93% 29.71 in 10.0 mi SSW 11.5 mph - N/A   Mostly Cloudy
6:55 PM 24.8 °F 15.3 °F 24.8 °F 100% 29.70 in 10.0 mi SSW 9.2 mph - N/A   Overcast
7:15 PM 26.6 °F 18.2 °F 24.8 °F 93% 29.70 in 10.0 mi SSW 8.1 mph - N/A   Overcast
7:35 PM 28.4 °F 19.1 °F 24.8 °F 86% 29.70 in 10.0 mi SW 10.4 mph - N/A   Overcast
7:55 PM 26.6 °F 18.2 °F 23.0 °F 86% 29.71 in 10.0 mi SW 8.1 mph - N/A   Mostly Cloudy
8:15 PM 26.6 °F 18.2 °F 23.0 °F 86% 29.71 in 10.0 mi SW 8.1 mph - N/A   Mostly Cloudy
8:35 PM 26.6 °F 19.1 °F 23.0 °F 86% 29.71 in 10.0 mi WSW 6.9 mph - N/A   Overcast
8:55 PM 26.6 °F 17.5 °F 23.0 °F 86% 29.70 in 10.0 mi West 9.2 mph - N/A   Mostly Cloudy
9:15 PM 26.6 °F 17.5 °F 23.0 °F 86% 29.70 in 10.0 mi West 9.2 mph - N/A   Scattered Clouds
9:35 PM 26.6 °F 16.2 °F 23.0 °F 86% 29.69 in 10.0 mi West 11.5 mph - N/A   Clear
9:55 PM 28.4 °F 18.5 °F 23.0 °F 80% 29.69 in 10.0 mi West 11.5 mph - N/A   Clear
10:15 PM 28.4 °F 19.1 °F 23.0 °F 80% 29.69 in 10.0 mi West 10.4 mph 17.3 mph N/A   Clear
10:35 PM 30.2 °F 20.8 °F 24.8 °F 80% 29.69 in 10.0 mi West 11.5 mph - N/A   Clear
10:55 PM 28.4 °F 18.0 °F 24.8 °F 86% 29.69 in 10.0 mi West 12.7 mph - N/A   Clear
11:15 PM 28.4 °F 19.1 °F 24.8 °F 86% 29.69 in 10.0 mi West 10.4 mph 16.1 mph N/A   Clear
11:35 PM 28.4 °F 17.5 °F 23.0 °F 80% 29.70 in 10.0 mi WNW 13.8 mph - N/A   Clear
11:55 PM 28.4 °F 17.5 °F 24.8 °F 86% 29.71 in 10.0 mi WNW 13.8 mph 18.4 mph N/A   Clear